Regional Weather Roundup
Issued by NWS

Home | Current Version | Previous Version | Text Only | Print | Product List | Glossary On
Versions: 1 2 3 4 5 6 7 8 9 10 11 12 13 14 15 16 17 18 19 20 21 22 23 24 25 26 27 28 29 30 31 32 33 34 35 36 37 38 39 40 41 42 43 44 45 46 47 48 49 50
000
ASHW40 PHFO 261510
RWRHI

WEATHER ROUNDUP FOR HAWAII
NATIONAL WEATHER SERVICE HONOLULU HI
500 AM HST MON JAN 26 2015

THIS IS AN AUTOMATED REPORT THAT HAS NOT BEEN QUALITY CONTROLLED.

NOTE..."FAIR" INDICATES FEW OR NO CLOUDS BELOW 12,000 FEET WITH NO
SIGNIFICANT WEATHER AND/OR OBSTRUCTIONS TO VISIBILITY.

* - THESE SITES REPORT LIMITED FIELDS

HIZ001>004-261600-
KAUAI-NIIHAU-

CITY           SKY/WX    TMP DP  RH WIND       PRES   REMARKS
LIHUE APT      CLOUDY    72  58  61 NE16      29.96F
PORT ALLEN*      N/A     68 N/A N/A E12         N/A
POIPU*           N/A     66 N/A N/A N6G13       N/A
PRINCEVILLE*     N/A     64 N/A N/A MISG        N/A
KOKOLE POINT*  NOT AVBL
MOLOAA DAIRY*  NOT AVBL
WAIMEA HTS*    NOT AVBL
PUU OPAE*      NOT AVBL
PUU LUA*       NOT AVBL
MAKAHA RIDGE*  NOT AVBL
$$

HIZ005>011-261600-
OAHU-

CITY           SKY/WX    TMP DP  RH WIND       PRES   REMARKS
HONOLULU       PTCLDY    69  62  78 NE12      29.91F
KALAELOA       CLEAR     68  60  75 VRB6      29.93F
KANEOHE MCB    CLOUDY    72  62  71 NE9G17    29.95F
WHEELER FIELD  FAIR      63  60  91 W6        29.95F
BELLOWS*       NOT AVBL
KAHUKU*        NOT AVBL
WHEELER*       NOT AVBL
WAIANAE HARBOR NOT AVBL
DILLINGHAM*      N/A     66  63  88 MISG        N/A
KAHUKU TRN*      N/A     63  57  82 E9G15       N/A
KAWAILOA*        N/A    N/A N/A N/A E12         N/A
KII*             N/A     72  63  73 NE18        N/A
MAKUA RANGE*     N/A    N/A N/A N/A E13G22      N/A
OAHU FOREST NW NOT AVBL
SCHOFIELD BRK*   N/A     61  57  88 MISG        N/A
SCHOFIELD S*   NOT AVBL
WAIANAE VLY*   NOT AVBL
KUAOKALA*      NOT AVBL
HONOULIUULI*   NOT AVBL
MOKUOLOE IS*   NOT AVBL
PALEHUA*       NOT AVBL
WAIAWA PHB*    NOT AVBL
$$

HIZ012>013-261600-
MOLOKAI-

CITY           SKY/WX    TMP DP  RH WIND       PRES   REMARKS
MOLOKAI AIRPT  LGT RAIN  66  64  94 N15G24    29.93F
KALAUPAPA      NOT AVBL
MAKAPULAPAI*   NOT AVBL
MOLOKAI 1*     NOT AVBL
PUU ALII*      NOT AVBL
$$

HIZ016-261600-
KAHOOLAWE-

CITY           SKY/WX    TMP DP  RH WIND       PRES   REMARKS
KAHOOLAWE*     NOT AVBL
HAKIOAWA*      NOT AVBL
HONOKANAIA*      N/A     69  63  80 N20G35    29.91F
KANELOA*         N/A     70  66  88 MISG      29.13S
KEALIALALO*    NOT AVBL
LUA MAKIKA*    NOT AVBL
$$

HIZ014>015-261600-
LANAI-

CITY           SKY/WX    TMP DP  RH WIND       PRES   REMARKS
LANAI CITY     FAIR      64  64 100 NE26G33   29.94F
LANAI 1*       NOT AVBL
$$

HIZ017>028-261600-
MAUI-

CITY           SKY/WX    TMP DP  RH WIND       PRES   REMARKS
KAHULUI        MOCLDY   N/A N/A N/A NE12        N/A
KAPALUA-W MAUI NOT AVBL
HANA AIRPORT   LGT RAIN  66  64  94 CALM      29.99R
HANA*          NOT AVBL
HALEAKALA SUMM   N/A     48   7  18 NE21G35     N/A
MAALAEA BAY*   NOT AVBL
HALEAKALA*     NOT AVBL
KAUPO GAP*     NOT AVBL
KULA 1*          N/A    N/A N/A N/A CALM        N/A
$$

HIZ023>026-261600-
BIG ISLAND OF HAWAII COAST AND LOWER SLOPES-

CITY           SKY/WX    TMP DP  RH WIND       PRES   REMARKS
KAILUA KONA    CLEAR     70  65  84 E3        29.86S
HILO           LGT RAIN  69  65  86 N10       29.94R
HONOKAA*       NOT AVBL
KAWAIHAE MWT*  NOT AVBL
KAWAIHAE*        N/A     73 N/A N/A NE1         N/A
SOUTH POINT*   NOT AVBL
UPOLU AIRPORT* NOT AVBL
KAMUELA*       NOT AVBL
HAKALAU*         N/A     48  48 100 NW2         N/A
KALOKO-HONOKO* NOT AVBL
PALI 2*          N/A     63  59  88 NE14G24     N/A
KEALAKOMO*       N/A     72  64  78 NE16G23     N/A
KAUPULEHU*     NOT AVBL
KAPAPALA*        N/A     57  56  96 CALM        N/A
LOWER KAHUKU*  NOT AVBL
PUHE CS*       NOT AVBL
PUHO CS*       NOT AVBL
PTA KEAMUKU*     N/A     57  55  94 CALM        N/A
WAIKOLOA*      NOT AVBL
$$

HIZ027>028-261600-
BIG ISLAND OF HAWAII INTERIOR AND SUMMMITS-

CITY           SKY/WX    TMP DP  RH WIND       PRES   REMARKS
BRADSHAW FIELD CLOUDY    45  40  84 SE5       30.19S
MK VISITOR CEN NOT AVBL
MAUNA KEA*       N/A     39   0  19 CALM        N/A
MAUNA LOA*       N/A     43   5  21 MISG        N/A
MAUNA LOA 1*   NOT AVBL
PTA KIPUKA*      N/A     46  46 100 E3          N/A
PTA RANGE 17*    N/A     50  46  87 NE6G15      N/A
PTA WEST*        N/A     52  48  87 SE10        N/A
NENE CABIN*    NOT AVBL
AHUMOA*        NOT AVBL
PTA PORTABLE*  NOT AVBL
PUU MALI*      NOT AVBL
$$

HIC003-261600-
NORTHWEST ISLANDS-

CITY           SKY/WX    TMP DP  RH WIND       PRES   REMARKS
MIDWAY ISLAND  CLOUDY    63  57  82 CALM      30.07S
MIDWAY NOS*    NOT AVBL
FRENCH FRIGATE NOT AVBL
$$

PHZ110>124-180-261600-
BUOY REPORTS

STATION/POSITION TIME  TEMP    WIND        PRES    WAVE   SWELL
                       AIR SEA DIR/SP/G            HT/PER HT/DIR
                 (UTC) (F)     (DEG/KT/KT) (MB)    (FT/S) (FT/D)
BUOY 51001       NOT AVBL
BUOY 51101       1500   70 72   70/ 14/ 17 1015.6F   8/12   7/310
BUOY 51100       NOT AVBL
BUOY 51003       1400   76 78   60/ 17/ 21 1011.7F  10/14   8
BUOY 51004       1448   75 78   30/ 23/ 29 1010.1F  10/15   7/290
BARBERS PT BUOY  NOT AVBL
WAIMEA BAY BUOY  1500      76                N/A     7/13   5/320
KAILUA BAY BUOY  1500      76                N/A     7/ 7   2/340
LANAI BUOY       1500      77                N/A     4/13   3/280
BARBERS PT 2     1500      77                N/A     5/13   5/300
PAUWELA MAUI     1500      76                N/A     9/13   7/320
HILO             1500      77                N/A    10/14   7/340
KANEOHE BAY BUOY 1500      75                N/A     6/ 7   2/340
HANALEI KAUAI    NOT AVBL
KAHULUI HARBOR   1500   70 75   60/ 10/ 13 1013.9F
HONOLULU HARBOR  1500   70 75   60/  5/ 16 1012.9F
KILO NALU        NOT AVBL
HILO HARBOR      1500   71      30/ 16/ 20 1013.1S
MOKUOLOE         1500      74              1014.0F
NAWILIWILI       1500      75                N/A
WHOTS BUOY       NOT AVBL
BUOY 51028       NOT AVBL
$$

......................KEY........................................
  SKY/WX - SKY CONDITIONS/PRESENT WEATHER
  TMP    - TEMPERATURE IN FAHRENHEIT
  DWPT   - DEWPOINT IN FAHRENHEIT
  RH     - RELATIVE HUMIDITY IN PERCENT
  WIND   - DIRECTION AND SPEED /MPH FOR ISLANDS...KTS FOR BUOYS/
  PRES   - MEAN SEA LEVEL PRESSURE IN INCHES OF HG
  VSB    - VISIBILITY IN MILES
  HX     - HEAT INDEX
  WCI    - WIND CHILL INDEX
  VRB    - VARIABLE WIND DIRECTION
  N/A    - NOT AVAILABLE


USA.gov is the U.S. government's official web portal to all federal, state and local government web resources and services.